• In Czech Republic
  • List of Countries
  • For 7 days
  • Water Temperature
  • Satellite Maps
  • Weather Map
  • Weather Widgets
  • user-avatar
    Login

    Hourly Weather Durham

    Today, 25 February, Sunday

    Time Temperature Precipitation Wind Pressure Humidity
    00:00 -1°C° 0 mm 3 mps 766 mmHg 90%
    01:00 -1°C° 0 mm 3 mps 766 mmHg 90%
    02:00 -1°C° 0 mm 3 mps 766 mmHg 89%
    03:00 -1°C° 0 mm 3 mps 766 mmHg 89%
    04:00 -1°C° 0 mm 3 mps 766 mmHg 88%
    05:00 -1°C° 0 mm 3 mps 767 mmHg 86%
    06:00 -1°C° 0 mm 2 mps 767 mmHg 89%
    07:00 -1°C° 0 mm 3 mps 767 mmHg 83%
    08:00 -1°C° 0 mm 4 mps 767 mmHg 78%
    09:00 0°C° 0 mm 5 mps 767 mmHg 72%
    10:00 0°C° 0 mm 5 mps 767 mmHg 68%
    11:00 +1°C° 0 mm 5 mps 768 mmHg 64%
    12:00 +2°C° 0 mm 5 mps 768 mmHg 60%
    13:00 +2°C° 0 mm 5 mps 768 mmHg 60%
    14:00 +2°C° 0 mm 6 mps 768 mmHg 60%
    15:00 +1°C° 0 mm 6 mps 768 mmHg 60%
    16:00 0°C° 0 mm 5 mps 768 mmHg 64%
    17:00 -1°C° 0 mm 5 mps 768 mmHg 68%
    18:00 -2°C° 0 mm 5 mps 768 mmHg 72%
    19:00 -2°C° 0 mm 5 mps 769 mmHg 73%
    20:00 -2°C° 0 mm 5 mps 769 mmHg 74%
    21:00 -3°C° 0 mm 4 mps 769 mmHg 75%
    22:00 -2°C° 0 mm 4 mps 770 mmHg 75%
    23:00 -2°C° 0 mm 4 mps 770 mmHg 75%

    Tomorrow, 26 February, Monday

    Time Temperature Precipitation Wind Pressure Humidity
    00:00 -2°C° 0 mm 4 mps 770 mmHg 74%
    01:00 -2°C° 0 mm 4 mps 770 mmHg 75%
    02:00 -2°C° 0 mm 4 mps 770 mmHg 75%
    03:00 -2°C° 0 mm 4 mps 771 mmHg 76%
    04:00 -2°C° 0 mm 4 mps 771 mmHg 74%
    05:00 -2°C° 0 mm 4 mps 771 mmHg 73%
    06:00 -2°C° 0 mm 4 mps 771 mmHg 72%
    07:00 -2°C° 0 mm 5 mps 771 mmHg 68%
    08:00 -2°C° 0 mm 5 mps 771 mmHg 64%
    09:00 -2°C° 0 mm 6 mps 772 mmHg 61%
    10:00 -2°C° 0 mm 6 mps 772 mmHg 59%
    11:00 -2°C° 0 mm 6 mps 772 mmHg 57%
    12:00 -1°C° 0 mm 6 mps 772 mmHg 55%
    13:00 -1°C° 0 mm 6 mps 772 mmHg 55%
    14:00 0°C° 0 mm 5 mps 771 mmHg 55%
    15:00 0°C° 0 mm 5 mps 771 mmHg 55%
    16:00 -1°C° 0 mm 5 mps 771 mmHg 60%
    17:00 -2°C° 0 mm 4 mps 771 mmHg 64%
    18:00 -2°C° 0 mm 4 mps 771 mmHg 69%
    19:00 -1°C° 0 mm 3 mps 771 mmHg 70%
    20:00 -1°C° 0 mm 3 mps 770 mmHg 72%
    21:00 -1°C° 0 mm 3 mps 770 mmHg 73%
    22:00 -2°C° 0.1 mm 4 mps 769 mmHg 76%
    23:00 -2°C° 0.1 mm 5 mps 769 mmHg 79%

    Day after tomorrow, 27 February, Tuesday

    Time Temperature Precipitation Wind Pressure Humidity
    00:00 -4°C° 0.1 mm 6 mps 768 mmHg 81%
    01:00 -3°C° 0.4 mm 6 mps 767 mmHg 81%
    02:00 -3°C° 0.4 mm 7 mps 767 mmHg 81%
    03:00 -3°C° 0.4 mm 7 mps 766 mmHg 81%
    04:00 -3°C° 0.4 mm 7 mps 766 mmHg 82%
    05:00 -3°C° 0.4 mm 6 mps 765 mmHg 83%
    06:00 -3°C° 0.4 mm 6 mps 765 mmHg 85%
    07:00 -3°C° 0.1 mm 6 mps 765 mmHg 81%
    08:00 -3°C° 0.1 mm 6 mps 765 mmHg 77%
    09:00 -3°C° 0.1 mm 6 mps 766 mmHg 73%
    10:00 -3°C° 0.2 mm 6 mps 766 mmHg 71%
    11:00 -3°C° 0.2 mm 7 mps 766 mmHg 70%
    12:00 -2°C° 0.2 mm 7 mps 766 mmHg 68%
    13:00 -3°C° 0.2 mm 7 mps 765 mmHg 68%
    14:00 -3°C° 0.2 mm 7 mps 765 mmHg 68%
    15:00 -3°C° 0.2 mm 7 mps 765 mmHg 67%
    16:00 -3°C° 0.2 mm 7 mps 764 mmHg 70%
    17:00 -4°C° 0.2 mm 7 mps 764 mmHg 73%
    18:00 -6°C° 0.2 mm 7 mps 764 mmHg 76%
    19:00 -6°C° 0.3 mm 7 mps 764 mmHg 76%
    20:00 -6°C° 0.3 mm 7 mps 764 mmHg 77%
    21:00 -6°C° 0.3 mm 8 mps 764 mmHg 77%
    22:00 -7°C° 0.3 mm 8 mps 764 mmHg 77%
    23:00 -7°C° 0.3 mm 7 mps 764 mmHg 76%

    28 February, Wednesday

    Time Temperature Precipitation Wind Pressure Humidity
    00:00 -7°C° 0.3 mm 7 mps 763 mmHg 76%
    01:00 -8°C° 0.2 mm 7 mps 763 mmHg 76%
    02:00 -8°C° 0.2 mm 6 mps 763 mmHg 75%
    03:00 -7°C° 0.2 mm 5 mps 762 mmHg 75%
    04:00 -8°C° 0.3 mm 6 mps 762 mmHg 78%
    05:00 -8°C° 0.3 mm 6 mps 761 mmHg 81%
    06:00 -8°C° 0.3 mm 7 mps 761 mmHg 84%
    07:00 -8°C° 0.5 mm 7 mps 761 mmHg 83%
    08:00 -7°C° 0.5 mm 7 mps 761 mmHg 82%
    09:00 -7°C° 0.5 mm 7 mps 761 mmHg 80%
    10:00 -6°C° 0.4 mm 8 mps 761 mmHg 80%
    11:00 -6°C° 0.4 mm 9 mps 761 mmHg 80%
    12:00 -6°C° 0.4 mm 9 mps 761 mmHg 80%
    13:00 -6°C° 0.4 mm 9 mps 761 mmHg 78%
    14:00 -6°C° 0.4 mm 9 mps 762 mmHg 76%
    15:00 -6°C° 0.4 mm 9 mps 762 mmHg 75%
    16:00 -8°C° 0.3 mm 9 mps 762 mmHg 76%
    17:00 -7°C° 0.3 mm 8 mps 762 mmHg 78%
    18:00 -8°C° 0.3 mm 7 mps 762 mmHg 80%
    19:00 -8°C° 0.2 mm 8 mps 761 mmHg 81%
    20:00 -8°C° 0.2 mm 8 mps 761 mmHg 82%
    21:00 -8°C° 0.2 mm 8 mps 761 mmHg 83%
    22:00 -8°C° 0.2 mm 8 mps 761 mmHg 84%
    23:00 -7°C° 0.2 mm 8 mps 760 mmHg 85%

    1 March, Thursday

    Time Temperature Precipitation Wind Pressure Humidity
    00:00 -7°C° 0.2 mm 8 mps 760 mmHg 86%
    01:00 -7°C° 0.2 mm 8 mps 760 mmHg 86%
    02:00 -8°C° 0.2 mm 9 mps 759 mmHg 86%
    03:00 -8°C° 0.2 mm 9 mps 759 mmHg 86%
    04:00 -8°C° 0.2 mm 9 mps 758 mmHg 85%
    05:00 -8°C° 0.2 mm 9 mps 758 mmHg 84%
    06:00 -8°C° 0.2 mm 9 mps 758 mmHg 83%
    07:00 -7°C° 0.3 mm 10 mps 757 mmHg 84%
    08:00 -7°C° 0.3 mm 10 mps 757 mmHg 84%
    09:00 -7°C° 0.3 mm 10 mps 757 mmHg 84%
    10:00 -7°C° 0.3 mm 11 mps 757 mmHg 83%
    11:00 -6°C° 0.3 mm 11 mps 756 mmHg 82%
    12:00 -6°C° 0.3 mm 11 mps 756 mmHg 82%
    13:00 -6°C° 0.3 mm 11 mps 755 mmHg 81%
    14:00 -6°C° 0.3 mm 11 mps 755 mmHg 81%
    15:00 -6°C° 0.3 mm 11 mps 754 mmHg 81%
    16:00 -5°C° 0.2 mm 10 mps 754 mmHg 82%
    17:00 -5°C° 0.2 mm 10 mps 754 mmHg 83%
    18:00 -7°C° 0.2 mm 10 mps 753 mmHg 83%
    19:00 -7°C° 0.2 mm 10 mps 753 mmHg 83%
    20:00 -5°C° 0.2 mm 10 mps 753 mmHg 84%
    21:00 -5°C° 0.2 mm 10 mps 753 mmHg 84%
    22:00 -5°C° 0.1 mm 10 mps 752 mmHg 84%
    23:00 -5°C° 0.1 mm 10 mps 752 mmHg 84%

    2 March, Friday

    Time Temperature Precipitation Wind Pressure Humidity
    00:00 -5°C° 0.1 mm 10 mps 751 mmHg 84%
    01:00 -5°C° 0.1 mm 10 mps 751 mmHg 83%
    02:00 -5°C° 0.1 mm 10 mps 750 mmHg 83%
    03:00 -6°C° 0.1 mm 11 mps 749 mmHg 83%
    04:00 -6°C° 0.1 mm 11 mps 749 mmHg 83%
    05:00 -6°C° 0.1 mm 11 mps 748 mmHg 84%
    06:00 -6°C° 0.1 mm 11 mps 748 mmHg 84%
    07:00 -6°C° 0.2 mm 11 mps 747 mmHg 85%
    08:00 -6°C° 0.2 mm 12 mps 747 mmHg 85%
    09:00 -6°C° 0.2 mm 12 mps 747 mmHg 86%
    10:00 -6°C° 0.4 mm 12 mps 746 mmHg 86%
    11:00 -6°C° 0.4 mm 12 mps 746 mmHg 87%
    12:00 -6°C° 0.4 mm 11 mps 745 mmHg 87%
    13:00 -6°C° 0.5 mm 11 mps 745 mmHg 88%
    14:00 -6°C° 0.5 mm 11 mps 744 mmHg 88%
    15:00 -6°C° 0.5 mm 11 mps 744 mmHg 89%
    16:00 -6°C° 0.7 mm 11 mps 744 mmHg 90%
    17:00 -6°C° 0.7 mm 11 mps 743 mmHg 91%
    18:00 -5°C° 0.7 mm 10 mps 743 mmHg 92%
    19:00 -5°C° 0.6 mm 10 mps 742 mmHg 92%
    20:00 -5°C° 0.6 mm 10 mps 742 mmHg 92%
    21:00 -4°C° 0.6 mm 10 mps 742 mmHg 92%
    22:00 -4°C° 0.5 mm 9 mps 741 mmHg 92%
    23:00 -4°C° 0.5 mm 9 mps 741 mmHg 92%
    Show more